Total_Precipitation_Accumulation
0.00 0.00 0.00 0.00 0.00 0.00 0.00 0.00 0.00 0.00 0.00 0.00 0.01 0.02 0.03 0.03 0.02 0.03 0.04 0.03 0.05 0.11 0.18 0.31 0.47 0.63 0.69 0.71 0.71 0.65 0.58 0.61 0.68 0.77 0.83 0.94 1.06 1.12 1.14 1.21 1.32 1.50 1.64 1.71
0.00 0.00 0.00 0.00 0.00 0.00 0.00 0.00 0.01 0.01 0.01 0.01 0.02 0.06 0.07 0.05 0.04 0.06 0.10 0.12 0.16 0.21 0.29 0.48 0.66 0.95 1.03 0.97 0.97 0.98 0.98 1.09 1.27 1.50 1.67 1.81 1.96 2.06 2.09 2.11 2.23 2.34 2.47 2.54
0.00 0.00 0.00 0.00 0.00 0.00 0.00 0.00 0.01 0.01 0.03 0.03 0.04 0.09 0.10 0.11 0.09 0.09 0.16 0.29 0.36 0.48 0.65 0.79 0.93 1.06 1.21 1.25 1.29 1.35 1.46 1.72 2.06 2.33 2.57 2.72 2.91 3.04 2.97 2.83 2.87 2.96 3.02 3.03
0.00 0.00 0.00 0.00 0.00 0.00 0.00 0.00 0.00 0.00 0.03 0.04 0.04 0.12 0.16 0.16 0.15 0.13 0.19 0.26 0.33 0.51 0.72 0.86 1.01 1.21 1.30 1.38 1.47 1.57 1.77 2.12 2.49 2.80 3.18 3.43 3.52 3.63 3.77 3.67 3.52 3.34 3.15 3.05
0.00 0.00 0.00 0.00 0.00 0.00 0.00 0.00 0.00 0.00 0.01 0.03 0.03 0.12 0.30 0.24 0.24 0.21 0.21 0.20 0.26 0.34 0.49 0.67 0.83 1.10 1.30 1.39 1.40 1.48 1.80 2.28 2.87 3.45 3.81 4.00 4.10 4.09 4.02 3.80 3.53 3.23 2.91 2.53
0.01 0.00 0.00 0.00 0.00 0.00 0.00 0.00 0.00 0.00 0.00 0.02 0.02 0.08 0.32 0.39 0.41 0.38 0.29 0.24 0.24 0.26 0.31 0.39 0.54 0.79 1.05 1.14 1.33 1.54 1.85 2.45 3.10 3.56 3.88 4.09 4.13 3.93 3.68 3.33 2.92 2.66 2.39 2.02
0.02 0.01 0.00 0.00 0.00 0.00 0.00 0.00 0.00 0.00 0.00 0.02 0.04 0.12 0.36 0.52 0.42 0.30 0.26 0.26 0.27 0.24 0.27 0.33 0.42 0.59 0.83 0.98 1.27 1.61 2.00 2.48 2.87 3.26 3.52 3.55 3.52 3.36 3.21 2.99 2.73 2.48 2.12 1.74
0.08 0.04 0.01 0.00 0.00 0.00 0.00 0.00 0.00 0.00 0.01 0.03 0.10 0.25 0.42 0.40 0.30 0.24 0.23 0.21 0.24 0.28 0.31 0.37 0.51 0.66 0.80 0.91 1.07 1.41 1.76 2.17 2.36 2.48 2.66 2.72 2.74 2.73 2.62 2.44 2.20 1.93 1.62 1.36
0.10 0.09 0.02 0.00 0.00 0.00 0.00 0.00 0.00 0.00 0.01 0.05 0.22 0.40 0.62 0.59 0.38 0.30 0.27 0.22 0.24 0.26 0.30 0.39 0.51 0.63 0.71 0.77 0.92 1.10 1.29 1.53 1.75 1.90 1.94 1.96 1.98 1.89 1.80 1.65 1.43 1.25 1.09 0.88
0.11 0.09 0.03 0.01 0.01 0.00 0.01 0.01 0.01 0.01 0.02 0.10 0.27 0.45 0.69 0.83 0.62 0.48 0.33 0.29 0.29 0.28 0.32 0.40 0.45 0.49 0.53 0.57 0.69 0.81 0.95 1.07 1.20 1.27 1.27 1.24 1.21 1.17 1.09 0.99 0.90 0.74 0.58 0.46
0.16 0.15 0.07 0.02 0.01 0.02 0.01 0.01 0.01 0.02 0.03 0.11 0.30 0.63 0.93 1.13 1.07 0.79 0.52 0.40 0.32 0.32 0.36 0.37 0.38 0.41 0.38 0.39 0.48 0.56 0.63 0.76 0.84 0.85 0.80 0.72 0.70 0.65 0.60 0.55 0.52 0.44 0.36 0.31
0.13 0.19 0.15 0.06 0.03 0.02 0.01 0.02 0.02 0.02 0.05 0.10 0.29 0.95 1.39 1.51 1.38 1.04 0.72 0.53 0.44 0.39 0.38 0.36 0.33 0.31 0.28 0.30 0.34 0.39 0.43 0.48 0.50 0.48 0.45 0.41 0.40 0.39 0.38 0.36 0.34 0.32 0.31 0.29
0.08 0.20 0.27 0.24 0.13 0.04 0.03 0.03 0.04 0.06 0.05 0.11 0.27 0.95 1.35 1.31 1.16 0.98 0.81 0.71 0.66 0.58 0.47 0.42 0.38 0.33 0.31 0.31 0.31 0.30 0.30 0.29 0.30 0.30 0.30 0.30 0.30 0.31 0.32 0.33 0.34 0.33 0.32 0.30
0.04 0.19 0.40 0.47 0.38 0.15 0.09 0.08 0.06 0.04 0.06 0.15 0.34 0.68 0.96 1.03 1.01 1.04 1.05 0.91 0.75 0.60 0.50 0.50 0.52 0.48 0.40 0.32 0.29 0.27 0.27 0.25 0.23 0.23 0.23 0.23 0.24 0.25 0.27 0.28 0.28 0.28 0.29 0.30
0.06 0.22 0.25 0.24 0.22 0.18 0.17 0.14 0.11 0.09 0.10 0.26 0.52 0.73 1.03 1.21 1.19 1.19 1.15 0.94 0.75 0.63 0.59 0.62 0.62 0.55 0.46 0.41 0.36 0.33 0.32 0.29 0.27 0.26 0.27 0.27 0.27 0.27 0.28 0.30 0.31 0.31 0.29 0.27
0.05 0.17 0.18 0.19 0.16 0.19 0.23 0.22 0.21 0.24 0.28 0.38 0.62 0.92 1.35 1.49 1.37 1.31 1.26 1.09 0.93 0.84 0.80 0.76 0.70 0.64 0.59 0.54 0.49 0.45 0.42 0.39 0.38 0.39 0.40 0.40 0.39 0.38 0.36 0.33 0.29 0.25 0.21 0.16
0.03 0.10 0.17 0.24 0.19 0.24 0.38 0.33 0.27 0.31 0.39 0.51 0.72 0.94 1.15 1.27 1.33 1.36 1.42 1.33 1.12 1.00 0.94 0.90 0.87 0.80 0.73 0.68 0.62 0.58 0.55 0.51 0.49 0.49 0.50 0.49 0.45 0.39 0.31 0.22 0.16 0.13 0.10 0.08
0.03 0.07 0.15 0.18 0.23 0.46 0.43 0.22 0.25 0.35 0.39 0.48 0.54 0.66 0.84 0.92 1.00 1.07 1.12 1.11 1.05 0.96 0.93 0.91 0.89 0.88 0.82 0.75 0.68 0.63 0.59 0.56 0.53 0.51 0.49 0.43 0.35 0.27 0.18 0.12 0.09 0.08 0.07 0.06
0.02 0.06 0.12 0.15 0.26 0.42 0.37 0.19 0.18 0.36 0.54 0.51 0.50 0.47 0.52 0.55 0.59 0.77 0.89 0.91 0.94 1.00 1.00 0.97 0.91 0.82 0.75 0.68 0.63 0.61 0.60 0.56 0.49 0.43 0.34 0.25 0.17 0.12 0.08 0.07 0.07 0.06 0.05 0.04
0.02 0.05 0.11 0.16 0.29 0.44 0.44 0.19 0.12 0.28 0.72 0.70 0.63 0.58 0.59 0.65 0.67 0.69 0.73 0.74 0.80 0.84 0.83 0.76 0.66 0.57 0.53 0.52 0.49 0.45 0.41 0.35 0.28 0.20 0.13 0.10 0.07 0.05 0.05 0.05 0.05 0.04 0.04 0.04
0.09 0.09 0.13 0.20 0.33 0.41 0.18 0.08 0.18 0.49 0.74 0.78 0.65 0.57 0.60 0.72 0.66 0.52 0.50 0.55 0.57 0.60 0.58 0.52 0.46 0.43 0.40 0.36 0.31 0.26 0.21 0.16 0.11 0.07 0.05 0.04 0.03 0.02 0.02 0.03 0.03 0.03 0.04 0.06
0.12 0.16 0.20 0.27 0.39 0.43 0.15 0.11 0.28 0.40 0.44 0.52 0.47 0.44 0.43 0.38 0.32 0.28 0.28 0.32 0.35 0.36 0.35 0.32 0.30 0.27 0.23 0.19 0.15 0.14 0.11 0.07 0.04 0.03 0.03 0.03 0.02 0.01 0.01 0.03 0.04 0.04 0.06 0.08
0.05 0.07 0.14 0.24 0.36 0.32 0.17 0.16 0.21 0.28 0.39 0.36 0.28 0.21 0.16 0.14 0.13 0.13 0.16 0.18 0.21 0.21 0.22 0.21 0.17 0.15 0.15 0.13 0.12 0.10 0.08 0.06 0.05 0.06 0.05 0.03 0.03 0.02 0.02 0.04 0.05 0.06 0.08 0.08
0.03 0.01 0.03 0.09 0.19 0.19 0.17 0.16 0.17 0.19 0.24 0.21 0.17 0.13 0.07 0.06 0.08 0.10 0.12 0.14 0.14 0.15 0.14 0.13 0.13 0.13 0.13 0.13 0.13 0.12 0.10 0.09 0.11 0.12 0.08 0.05 0.05 0.05 0.05 0.06 0.05 0.06 0.08 0.06
0.02 0.01 0.03 0.08 0.14 0.19 0.24 0.17 0.13 0.13 0.14 0.14 0.14 0.12 0.07 0.03 0.05 0.08 0.10 0.11 0.12 0.13 0.13 0.12 0.13 0.12 0.10 0.09 0.09 0.10 0.10 0.12 0.15 0.14 0.09 0.05 0.04 0.06 0.07 0.09 0.06 0.04 0.05 0.01
0.01 0.01 0.05 0.11 0.13 0.21 0.28 0.19 0.12 0.16 0.17 0.17 0.14 0.11 0.09 0.06 0.06 0.06 0.09 0.12 0.12 0.11 0.09 0.09 0.09 0.06 0.05 0.06 0.06 0.07 0.09 0.09 0.10 0.11 0.07 0.04 0.03 0.05 0.06 0.09 0.10 0.04 0.01 0.00